ラッセル-リニア彗星

156P/Russell-LINEAR (2014)

English version
Home page
Updated on May 29, 2016

---------------------------------------------------------------------

・ プロフィール

・ 写真集

・ 軌道要素

Epoch 2014 Apr. 13.0 TT = JDT 2456760.5
T 2014 Apr. 16.56140 TT                                 MPCW
q   1.5848648            (2000.0)            P               Q
n   0.14466621     Peri.  357.80587     +0.79929657     -0.55796306
a   3.5938338      Node    38.98154     +0.55661043     +0.54741592
e   0.5590044      Incl.   20.77827     +0.22651674     +0.62370909
P   6.81
From 83 observations 1986 Sept. 3-2014 Dec. 24, mean residual 0".5.

・ 光度変化

        m1 = 15.8 + 5 logΔ + 5.0 log r

---------------------------------------------------------------------

軌道要素はM.P.E.C. 2015-E14に掲載されたものです。
光度グラフはComet for Windowsで作成したものです。

---------------------------------------------------------------------

Copyright(C) Seiichi Yoshida (comet@aerith.net). All rights reserved.